• în România
  • Lista ţărilor
  • Pe 7 zile
  • Temperatura apei
  • Hartă satelitară
  • Meteo pe hartă
  • Widget-uri
  • user-avatar
    Intrare

    Meteo pe oră la Malanje

    Astăzi, 19 Ianuarie, Joi

    Timp Temperatura Precipitaţii Vânt Presiune Umiditate
    00:00 +20°C° 0 mm 2 m/s 664 mmHg 84%
    01:00 +20°C° 0 mm 1 m/s 664 mmHg 86%
    02:00 +20°C° 0 mm 1 m/s 664 mmHg 84%
    03:00 +20°C° 0 mm 1 m/s 664 mmHg 83%
    04:00 +20°C° 0 mm 1 m/s 664 mmHg 81%
    05:00 +21°C° 0 mm 1 m/s 665 mmHg 81%
    06:00 +21°C° 0 mm 1 m/s 665 mmHg 81%
    07:00 +21°C° 0 mm 1 m/s 665 mmHg 83%
    08:00 +22°C° 0 mm 1 m/s 666 mmHg 79%
    09:00 +23°C° 0 mm 1 m/s 666 mmHg 76%
    10:00 +24°C° 0 mm 1 m/s 666 mmHg 73%
    11:00 +26°C° 0,1 mm 1 m/s 666 mmHg 66%
    12:00 +28°C° 0,1 mm 1 m/s 666 mmHg 59%
    13:00 +30°C° 0,1 mm 1 m/s 666 mmHg 52%
    14:00 +29°C° 0,1 mm 2 m/s 665 mmHg 52%
    15:00 +29°C° 0,1 mm 2 m/s 665 mmHg 53%
    16:00 +29°C° 0,1 mm 2 m/s 664 mmHg 53%
    17:00 +27°C° 0,2 mm 2 m/s 664 mmHg 60%
    18:00 +25°C° 0,2 mm 2 m/s 664 mmHg 68%
    19:00 +23°C° 0,2 mm 2 m/s 664 mmHg 75%
    20:00 +21°C° 1,4 mm 2 m/s 665 mmHg 81%
    21:00 +20°C° 1,4 mm 2 m/s 665 mmHg 86%
    22:00 +19°C° 1,4 mm 2 m/s 665 mmHg 92%
    23:00 +19°C° 0 mm 2 m/s 665 mmHg 92%

    Mâine, 20 Ianuarie, Vineri

    Timp Temperatura Precipitaţii Vânt Presiune Umiditate
    00:00 +19°C° 0 mm 2 m/s 665 mmHg 92%
    01:00 +19°C° 0 mm 2 m/s 665 mmHg 92%
    02:00 +18°C° 0 mm 2 m/s 665 mmHg 93%
    03:00 +18°C° 0 mm 2 m/s 664 mmHg 94%
    04:00 +18°C° 0 mm 2 m/s 664 mmHg 96%
    05:00 +19°C° 0 mm 1 m/s 664 mmHg 95%
    06:00 +20°C° 0 mm 1 m/s 665 mmHg 94%
    07:00 +20°C° 0 mm 1 m/s 665 mmHg 93%
    08:00 +22°C° 0 mm 1 m/s 665 mmHg 82%
    09:00 +25°C° 0 mm 1 m/s 666 mmHg 71%
    10:00 +27°C° 0 mm 1 m/s 667 mmHg 61%
    11:00 +29°C° 0 mm 1 m/s 666 mmHg 55%
    12:00 +30°C° 0 mm 1 m/s 666 mmHg 49%
    13:00 +31°C° 0 mm 1 m/s 666 mmHg 43%
    14:00 +31°C° 0 mm 2 m/s 665 mmHg 44%
    15:00 +31°C° 0 mm 2 m/s 664 mmHg 46%
    16:00 +31°C° 0 mm 3 m/s 664 mmHg 48%
    17:00 +28°C° 0 mm 2 m/s 664 mmHg 54%
    18:00 +26°C° 0 mm 2 m/s 663 mmHg 59%
    19:00 +24°C° 0 mm 2 m/s 663 mmHg 65%
    20:00 +23°C° 0 mm 2 m/s 664 mmHg 67%
    21:00 +23°C° 0 mm 2 m/s 664 mmHg 69%
    22:00 +21°C° 0 mm 3 m/s 665 mmHg 70%
    23:00 +20°C° 0 mm 3 m/s 664 mmHg 75%

    Poimâine, 21 Ianuarie, Sâmbătă

    Timp Temperatura Precipitaţii Vânt Presiune Umiditate
    00:00 +19°C° 0 mm 3 m/s 664 mmHg 80%
    01:00 +18°C° 0 mm 3 m/s 664 mmHg 85%
    02:00 +18°C° 0 mm 2 m/s 663 mmHg 88%
    03:00 +17°C° 0 mm 2 m/s 663 mmHg 90%
    04:00 +17°C° 0 mm 2 m/s 663 mmHg 92%
    05:00 +17°C° 0 mm 2 m/s 663 mmHg 90%
    06:00 +18°C° 0 mm 2 m/s 664 mmHg 88%
    07:00 +19°C° 0 mm 1 m/s 665 mmHg 86%
    08:00 +21°C° 0 mm 2 m/s 665 mmHg 75%
    09:00 +25°C° 0 mm 2 m/s 666 mmHg 64%
    10:00 +27°C° 0 mm 2 m/s 666 mmHg 53%
    11:00 +28°C° 0 mm 3 m/s 666 mmHg 50%
    12:00 +29°C° 0 mm 3 m/s 666 mmHg 46%
    13:00 +31°C° 0 mm 3 m/s 665 mmHg 42%
    14:00 +30°C° 0 mm 4 m/s 664 mmHg 45%
    15:00 +30°C° 0 mm 4 m/s 664 mmHg 47%
    16:00 +30°C° 0 mm 4 m/s 663 mmHg 50%
    17:00 +28°C° 0 mm 4 m/s 663 mmHg 55%
    18:00 +26°C° 0 mm 4 m/s 663 mmHg 59%
    19:00 +24°C° 0 mm 3 m/s 664 mmHg 64%
    20:00 +22°C° 0 mm 3 m/s 664 mmHg 65%
    21:00 +22°C° 0 mm 3 m/s 664 mmHg 66%
    22:00 +21°C° 0 mm 3 m/s 665 mmHg 66%
    23:00 +20°C° 0 mm 3 m/s 664 mmHg 74%

    22 Ianuarie, Duminică

    Timp Temperatura Precipitaţii Vânt Presiune Umiditate
    00:00 +19°C° 0 mm 3 m/s 664 mmHg 81%
    01:00 +19°C° 0 mm 2 m/s 664 mmHg 89%
    02:00 +19°C° 0,1 mm 3 m/s 664 mmHg 91%
    03:00 +18°C° 0,1 mm 3 m/s 663 mmHg 93%
    04:00 +18°C° 0,1 mm 3 m/s 663 mmHg 95%
    05:00 +18°C° 0,4 mm 3 m/s 664 mmHg 95%
    06:00 +18°C° 0,4 mm 2 m/s 664 mmHg 95%
    07:00 +18°C° 0,4 mm 2 m/s 665 mmHg 95%
    08:00 +19°C° 0,6 mm 2 m/s 665 mmHg 92%
    09:00 +20°C° 0,6 mm 2 m/s 665 mmHg 88%
    10:00 +20°C° 0,6 mm 2 m/s 666 mmHg 85%
    11:00 +21°C° 0,2 mm 2 m/s 665 mmHg 79%
    12:00 +22°C° 0,2 mm 3 m/s 665 mmHg 72%
    13:00 +24°C° 0,2 mm 3 m/s 664 mmHg 65%
    14:00 +24°C° 0 mm 3 m/s 664 mmHg 63%
    15:00 +25°C° 0 mm 3 m/s 664 mmHg 61%
    16:00 +25°C° 0 mm 4 m/s 663 mmHg 59%
    17:00 +22°C° 0,3 mm 3 m/s 664 mmHg 64%
    18:00 +21°C° 0,3 mm 2 m/s 664 mmHg 70%
    19:00 +19°C° 0,3 mm 2 m/s 664 mmHg 76%
    20:00 +19°C° 1,3 mm 2 m/s 664 mmHg 80%
    21:00 +18°C° 1,3 mm 2 m/s 665 mmHg 84%
    22:00 +18°C° 1,3 mm 3 m/s 665 mmHg 87%
    23:00 +18°C° 0,7 mm 3 m/s 665 mmHg 89%

    23 Ianuarie, Luni

    Timp Temperatura Precipitaţii Vânt Presiune Umiditate
    00:00 +18°C° 0,7 mm 3 m/s 665 mmHg 91%
    01:00 +18°C° 0,7 mm 4 m/s 664 mmHg 93%
    02:00 +18°C° 0,1 mm 3 m/s 664 mmHg 92%
    03:00 +17°C° 0,1 mm 3 m/s 664 mmHg 92%
    04:00 +17°C° 0,1 mm 2 m/s 664 mmHg 92%
    05:00 +17°C° 0 mm 2 m/s 664 mmHg 91%
    06:00 +17°C° 0 mm 2 m/s 665 mmHg 90%
    07:00 +17°C° 0 mm 2 m/s 666 mmHg 89%
    08:00 +19°C° 0 mm 3 m/s 666 mmHg 82%
    09:00 +21°C° 0 mm 3 m/s 667 mmHg 74%
    10:00 +22°C° 0 mm 4 m/s 667 mmHg 67%
    11:00 +25°C° 0 mm 4 m/s 667 mmHg 64%
    12:00 +26°C° 0 mm 4 m/s 666 mmHg 60%
    13:00 +27°C° 0 mm 5 m/s 666 mmHg 56%
    14:00 +27°C° 0 mm 5 m/s 665 mmHg 57%
    15:00 +27°C° 0 mm 5 m/s 665 mmHg 58%
    16:00 +27°C° 0 mm 5 m/s 664 mmHg 58%
    17:00 +23°C° 0 mm 4 m/s 664 mmHg 64%
    18:00 +21°C° 0 mm 3 m/s 664 mmHg 70%
    19:00 +19°C° 0 mm 3 m/s 664 mmHg 76%
    20:00 +18°C° 0 mm 2 m/s 665 mmHg 77%
    21:00 +17°C° 0 mm 2 m/s 665 mmHg 79%
    22:00 +16°C° 0 mm 2 m/s 665 mmHg 81%
    23:00 +16°C° 0 mm 2 m/s 665 mmHg 80%

    24 Ianuarie, Marţi

    Timp Temperatura Precipitaţii Vânt Presiune Umiditate
    00:00 +16°C° 0 mm 2 m/s 665 mmHg 80%
    01:00 +16°C° 0 mm 2 m/s 664 mmHg 79%
    02:00 +16°C° 0 mm 2 m/s 664 mmHg 83%
    03:00 +15°C° 0 mm 2 m/s 664 mmHg 86%
    04:00 +15°C° 0 mm 2 m/s 664 mmHg 90%
    05:00 +16°C° 0 mm 2 m/s 664 mmHg 89%
    06:00 +18°C° 0 mm 1 m/s 665 mmHg 89%
    07:00 +18°C° 0 mm 1 m/s 666 mmHg 88%
    08:00 +20°C° 0 mm 2 m/s 667 mmHg 79%
    09:00 +24°C° 0 mm 2 m/s 667 mmHg 69%
    10:00 +26°C° 0 mm 3 m/s 668 mmHg 60%
    11:00 +27°C° 0 mm 3 m/s 667 mmHg 55%
    12:00 +28°C° 0 mm 4 m/s 667 mmHg 51%
    13:00 +30°C° 0 mm 4 m/s 666 mmHg 47%
    14:00 +29°C° 0 mm 4 m/s 666 mmHg 47%
    15:00 +29°C° 0 mm 4 m/s 666 mmHg 48%
    16:00 +29°C° 0 mm 4 m/s 665 mmHg 49%
    17:00 +27°C° 0 mm 4 m/s 665 mmHg 56%
    18:00 +24°C° 0 mm 3 m/s 665 mmHg 63%
    19:00 +21°C° 0 mm 3 m/s 665 mmHg 70%
    20:00 +20°C° 0 mm 3 m/s 665 mmHg 73%
    21:00 +19°C° 0 mm 3 m/s 666 mmHg 76%
    22:00 +19°C° 0 mm 3 m/s 666 mmHg 79%
    23:00 +18°C° 0 mm 3 m/s 665 mmHg 82%
    Arată mai mult